Showing default

KINEIS-5C, 62081

Orbit data source: Space-Track

KINEIS-5C, 62081 is a French payload satellite in SSO that was launched on Mon, 25 Nov 2024 UTC via an ELECTRON launch vehicle from the Rocket Lab Launch Complex (RLLC). Payload-class satellites include a variety of spacecraft equipped with specific instruments for various scientific and technological missions. These include communications satellites like Starlink; space stations such as the ISS; scientific satellites like the Hubble; Earth observation satellites from companies like Planet Labs, Umbra, and HawkEye 360; GPS; miniature CubeSats for education and research; and military/defense satellites.

Loading next visibility...
Identifier
62081, 2024-219A
Orbit
SSO
Last TLE update
6 hours ago
Origin
Manufacturer
KINEIS
Mission
Operational Commercial Communications
Bus & Motor
CUBESAT 16U, Unknown motor
Mass
28 kg wet, 28 kg dry
Launch date (UTC)
2024-11-25 (8 months ago)
Launch vehicle
ELECTRON
Launch site
Rocket Lab Launch Complex (RLLC)
Object type
Payload
Rocket body
Debris
Shape & HBR
Box + 2 Pan + 1 Ant, 1.6 m
Radar Cross Section
0.229 m², Medium (>0.1 m² and < 1m²)

Expand to show TLE details & history

TLE from 6 hours ago
0 KINEIS-5C
1 62081U 24219A   25192.16342176  .00000482  00000-0  84120-4 0  9997
2 62081  97.9729 352.9536 0002412  58.6854 301.4589 14.72231059 33572
Epoch: 2025-07-11T03:55Z
TLE epoch observation values (Epoch: 2025-07-11T03:55:19.64Z)
Latitude
-0.00003°
Longitude
4.80248°
Altitude
656.078 km
Speed
7.53 km/s
True Right ascension
23h 31m 48s
True Declination
0° 00' 00"
Sunlit
Object was in full shadow at epoch
Visualization orbit readout
Latitude
44.14213°
Longitude
-167.20287°
Altitude
660.224 km
Speed
7.532 km/s
Apparent Right ascension
10h 54m 45s
Apparent Declination
4° 52' 01"
Sunlit
Object is in daylight
Visualization observer readout
Local Sidereal Time
21:43:24
Azimuth
335.627° NNW
Elevation
-42.302°
Doppler factor
1
Orbital elements
Apogee altitude
652.705 km
Perigee altitude
649.314 km
Semi-major axis
7,029.146 km
Eccentricity
0.00024
Inclination
97.9729°
RAAN
352.9536°
Arg. of periapsis
58.6854°
True anomaly
Unknown
Mean anomaly
301.4589°
Eccentric anomaly
Unknown
Mean motion
3.68289 °/min
Orbital period
97.75 mins
BSTAR
0.00008412
Loading maneuver chart data...
Loading SW <> Apogee altitude chart data...
Loading historical data...
Loading historical data...
Loading historical data...
Loading historical data...
Loading historical data...
Loading historical data...
Loading historical data...

KINEIS-5C Visibility forecast

Observer location: undefined°, undefined°

Span
Click to sort rows by Start time (UTC) header in descending order
Start Az.
Max El. time (UTC)
Max El. Az.
Max El.
End time (UTC)
End Az.
8 mins2025-07-11 10:33:42.162Z157.53° S2025-07-11 10:37:42.162Z93.809° ESE43.008°2025-07-11 10:41:42.162Z353.298° N
6 mins2025-07-12 00:04:42.162Z351.163° N2025-07-12 00:07:42.162Z270.879° WNW35.64°2025-07-12 00:10:42.162Z218.318° SW
|